Regional Weather Roundup
Issued by NWS

Home | Current Version | Previous Version | Graphics & Text | Print | Product List | Glossary On
Versions: 1 2 3 4 5 6 7 8 9 10 11 12 13 14 15 16 17 18 19 20 21 22 23 24 25 26 27 28 29 30 31 32 33 34 35 36 37 38 39 40 41 42 43 44 45 46 47 48 49 50
000
ASUS45 KBOI 280710
RWRID

IDAHO REGIONAL WEATHER ROUNDUP
NATIONAL WEATHER SERVICE BOISE ID
100 AM MDT THU MAY 28 2015

NOTE: "FAIR" INDICATES FEW OR NO CLOUDS BELOW 12000 FEET
WITH NO SIGNIFICANT WEATHER AND/OR OBSTRUCTIONS TO VISIBILITY

IDZ012-014-280800-
SOUTHWEST IDAHO


CITY           SKY/WX    TMP DP  RH WIND       PRES   REMARKS
BOISE          CLEAR     59  45  59 CALM      30.02R
CALDWELL       CLEAR     57  41  54 W3        30.04R
MOUNTAIN HOME  MOCLDY    56  42  59 NW8       30.02R
$$

IDZ016-017-280800-
SOUTHCENTRAL IDAHO


CITY           SKY/WX    TMP DP  RH WIND       PRES   REMARKS
BURLEY         PTCLDY    54  46  74 SW10      30.05R
JEROME         PTCLDY    53  44  71 S5        30.06R
TWIN FALLS     PTCLDY    55  45  68 S14       30.04R
$$

IDZ019>023-280800-
SOUTHEAST IDAHO


CITY           SKY/WX    TMP DP  RH WIND       PRES   REMARKS
IDAHO FALLS    CLOUDY    50  47  89 CALM      30.10S
POCATELLO      MOCLDY    50  48  93 W6        30.10R
REXBURG        CLOUDY    49  44  83 S3        30.10R
$$

IDZ006-010-011-018-031-032-280800-
CENTRAL IDAHO MOUNTAINS


CITY           SKY/WX    TMP DP  RH WIND       PRES   REMARKS
MCCALL         CLEAR     48  40  73 N6        30.09R
HAILEY         CLEAR     45  43  93 CALM      30.11S
STANLEY          N/A     35  33  92 CALM      30.15S
SALMON         CLOUDY    48  46  93 CALM      30.08R
CHALLIS        PTCLDY    42  37  82 SW3       30.10R
$$

IDZ002-004-006-007-026-280800-
NORTHERN IDAHO


CITY           SKY/WX    TMP DP  RH WIND       PRES   REMARKS
LEWISTON       CLEAR     57  50  77 S5        30.01R
LOWELL           N/A     52  49  89 N3        30.08R
COEUR D`ALENE  CLEAR     57  48  72 S8        30.01S
MULLAN PASS    PTCLDY    43  41  93 NW3       30.12R
$$



USA.gov is the U.S. government's official web portal to all federal, state and local government web resources and services.